Location: Unspecified
(41.9031°N, 12.4386°E)
Time: 05:50:08
(UTC+01:00)

ISS - Pass Details

Date: 13 December 2019
Orbit: 411 x 421 km, 51.6° (Epoch: 15 December)

Event Time Altitude Azimuth Distance (km) Brightness Sun altitude
Rises 17:36:44 0° 292° (WNW) 2,356 0.8 -10.4°
Reaches altitude 10° 17:39:15 10° 273° (W) 1,491 0.2 -10.8°
Maximum altitude 17:41:37 18° 228° (SW) 1,091 -0.6 -11.2°
Drops below altitude 10° 17:44:00 10° 182° (S) 1,487 -0.7 -11.6°
Sets 17:46:31 0° 163° (SSE) 2,348 0.1 -12.1°
